#timestamp,LO_Frequency,Hit,StdDev 
1566010815.3,286047002.3,N
1566010835.2,286047000.0,N
1566010855.9,286046999.7,N
1566010875.7,286047000.5,N
1566010895.6,286047002.4,N
1566010915.4,286046999.9,N
1566010935.2,286047002.1,N
1566010955.1,286047002.0,N
1566010956.0,286047002.0,N
1566010975.8,286047003.9,Y
1566010995.7,286047002.3,P
1566011015.5,286047002.0,P
1566011035.3,286047002.8,P
1566011055.2,286047002.8,Y
1566011075.0,286047001.1,P
1566011075.9,286047001.1,N
1566011095.8,286046999.0,N
1566011115.6,286046998.9,N
1566011135.4,286047000.8,N
1566011155.3,286046998.2,N
1566011175.1,286047000.6,N
1566011195.8,286047000.4,N
1566011215.7,286046998.3,N
1566011235.5,286046998.2,N
1566011255.4,286046998.2,N
1566011275.2,286046998.5,N
1566011295.0,286046999.3,N
1566011295.9,286046999.3,N
1566011315.8,286046999.2,N
1566011335.6,286046999.5,N
1566011355.4,286046999.3,N
1566011375.3,286046998.8,N
1566011395.1,286046998.3,N
1566011415.9,286046998.3,N
1566011435.7,286046998.2,N
1566011455.5,286046998.5,N
1566011475.4,286046998.3,N
1566011495.2,286046999.3,N
1566011515.1,286046996.8,N
1566011516.0,286046996.8,N
1566011535.8,286046996.7,N
1566011555.6,286046997.3,N
1566011575.5,286046997.1,N
1566011595.3,286046997.1,N
1566011615.1,286046996.8,N
1566011635.9,286046997.8,N
1566011655.7,286046997.9,N
1566011675.6,286046997.5,N
1566011695.4,286046995.0,Y
1566011715.2,286046996.8,P
1566011735.1,286046994.9,P
1566011736.0,286046994.9,P
1566011755.8,286046996.1,N
1566011775.7,286046996.2,N
1566011795.5,286046995.2,Y
1566011815.3,286046998.4,P
1566011835.2,286046998.6,N
1566011855.0,286047000.7,N
1566011855.9,286047000.7,N
1566011875.8,286047000.0,N
1566011895.6,286047001.1,N
1566011915.4,286047000.4,N
1566011935.3,286046999.0,N
1566011955.1,286046996.6,N
1566011975.8,286046996.6,N
1566011995.7,286046998.8,N
1566012015.5,286046998.6,N
1566012035.4,286047000.2,N
1566012055.2,286047002.6,N
1566012075.0,286046999.9,N
1566012075.9,286046999.9,N
1566012095.8,286046999.9,N
1566012115.6,286047001.2,N
1566012135.5,286047001.1,N
1566012155.3,286046999.0,N
1566012175.1,286046999.4,N
1566012195.9,286046999.1,N
1566012215.7,286046998.7,N
1566012235.6,286046999.1,N
1566012255.4,286046998.9,N
1566012275.2,286047000.8,N
1566012295.1,286047000.1,N
1566012296.0,286047000.1,N
1566012315.8,286047000.9,N
1566012335.7,286046998.1,N
1566012355.5,286047000.4,N
1566012375.3,286046999.9,N
1566012395.2,286047001.6,N
1566012415.0,286047002.2,N
1566012415.9,286047002.2,N
1566012435.7,286047002.0,N
1566012455.6,286047001.6,N
1566012475.4,286047002.1,N
1566012495.3,286047002.2,N
1566012515.1,286047002.3,N
1566012516.0,286047002.3,N
1566012535.8,286047002.3,N
1566012555.7,286047001.9,N
1566012575.5,286047002.3,N
1566012595.4,286047002.2,N
1566012615.2,286047002.1,N
1566012635.0,286047002.1,N
1566012635.9,286047002.1,N
1566012655.8,286047002.1,N
1566012675.6,286046999.8,N
1566012695.4,286047000.2,N
1566012715.3,286047002.3,N
1566012735.1,286047001.5,N
1566012755.9,286046999.9,N
1566012775.7,286046999.9,N
1566012795.5,286047001.9,N
1566012815.4,286047001.7,N
1566012835.2,286047001.8,N
1566012855.1,286047001.7,N
1566012856.0,286047001.7,N
1566012875.8,286047003.7,Y
1566012895.6,286047002.5,P
1566012915.5,286047002.0,P
1566012935.3,286047001.3,P
1566012955.2,286047002.2,Y
1566012975.9,286046999.0,P
1566012995.7,286046999.0,N
1566013015.6,286046998.4,N
1566013035.4,286047001.0,N
1566013055.2,286047000.8,N
1566013075.1,286046998.9,N
1566013076.0,286046998.9,N
1566013095.8,286046998.3,N
1566013115.7,286047000.5,N
1566013135.5,286047000.7,N
1566013155.3,286047001.1,N
1566013175.2,286046999.3,N
1566013195.0,286047000.8,N
1566013195.9,286047000.8,N
1566013215.8,286047000.5,N
1566013235.6,286047001.2,N
1566013255.4,286046999.8,N
1566013275.3,286047000.2,N
1566013295.1,286046999.8,N
1566013315.8,286047000.0,N
1566013335.7,286046999.8,N
1566013355.5,286047002.6,N
1566013375.4,286047000.3,N
1566013395.2,286046998.2,N
1566013415.1,286046998.6,N
1566013416.0,286046998.6,N
1566013435.8,286046998.6,N
1566013455.6,286046998.5,N
1566013475.5,286047000.8,N
1566013495.3,286046998.7,N
1566013515.2,286046998.9,N
1566013535.9,286047001.1,N
1566013555.7,286047001.2,N
1566013575.6,286046998.7,N
1566013595.4,286046998.1,N
1566013615.2,286047000.4,N
1566013635.1,286047000.8,N
1566013636.0,286047000.8,N
1566013655.8,286046998.1,N
1566013675.7,286047000.3,N
1566013695.5,286046999.7,N
1566013715.3,286047001.1,N
1566013735.2,286047001.0,N
1566013755.0,286047000.6,N
1566013755.9,286047000.6,N
1566013775.8,286046999.9,N
1566013795.6,286047000.3,N
1566013815.4,286047000.8,N
1566013835.3,286047001.1,N
1566013855.1,286046998.6,N
1566013875.8,286046998.7,N
1566013895.7,286047000.5,N
1566013915.5,286047000.7,N
1566013935.4,286047001.2,N
1566013955.2,286047001.1,N
1566013975.0,286047000.8,N
1566013975.9,286047000.8,N
1566013995.8,286047001.2,N
1566014015.6,286046998.5,N
1566014035.5,286047000.9,N
1566014055.3,286047000.1,N
1566014075.1,286047000.2,N
1566014095.9,286047000.5,N
1566014115.7,286047000.5,N
1566014135.5,286047001.2,N
1566014155.4,286047000.3,N
1566014175.2,286047000.9,N
1566014195.1,286046999.8,N
1566014196.0,286046999.8,N
1566014215.8,286047000.6,N
1566014235.6,286047000.3,N
1566014255.5,286047002.6,Y
1566014275.3,286047000.0,P
1566014295.2,286047002.8,P
1566014315.9,286046999.7,N
1566014335.7,286046999.7,N
1566014355.6,286047000.2,N
1566014375.4,286046999.7,N
1566014395.2,286047002.8,N
